TimeCDT,TemperatureF,Dew PointF,Humidity,Sea Level PressureIn,VisibilityMPH,Wind Direction,Wind SpeedMPH,Gust SpeedMPH,PrecipitationIn,Events,Conditions,WindDirDegrees,DateUTC
12:15 AM,70.0,63.1,79,30.00,10.0,South,9.2,-,N/A,,Clear,190,2013-09-07 05:15:00
12:35 AM,70.2,63.0,78,30.00,10.0,South,10.4,-,N/A,,Clear,190,2013-09-07 05:35:00
12:55 AM,70.7,62.6,75,30.00,10.0,SSW,9.2,-,N/A,,Scattered Clouds,200,2013-09-07 05:55:00
1:15 AM,70.9,61.9,73,29.99,10.0,SSW,10.4,-,N/A,,Scattered Clouds,200,2013-09-07 06:15:00
1:35 AM,70.2,62.1,75,30.00,10.0,SSW,9.2,-,N/A,,Mostly Cloudy,210,2013-09-07 06:35:00
1:55 AM,69.8,62.2,77,30.00,10.0,SW,8.1,-,N/A,,Mostly Cloudy,220,2013-09-07 06:55:00
2:15 AM,68.9,62.2,79,30.00,10.0,SSW,6.9,-,N/A,,Mostly Cloudy,210,2013-09-07 07:15:00
2:35 AM,68.9,62.1,79,30.00,10.0,SW,6.9,-,N/A,,Mostly Cloudy,220,2013-09-07 07:35:00
2:55 AM,68.0,61.9,81,29.99,10.0,SSW,5.8,-,N/A,,Scattered Clouds,200,2013-09-07 07:55:00
3:15 AM,67.1,61.3,82,29.98,10.0,SSW,5.8,-,N/A,,Clear,200,2013-09-07 08:15:00
3:35 AM,66.7,61.0,82,29.98,10.0,South,5.8,-,N/A,,Clear,190,2013-09-07 08:35:00
3:55 AM,67.1,60.6,80,29.98,10.0,South,6.9,-,N/A,,Clear,190,2013-09-07 08:55:00
4:15 AM,67.5,60.4,78,29.97,10.0,South,6.9,-,N/A,,Clear,190,2013-09-07 09:15:00
4:35 AM,67.5,60.3,78,29.97,10.0,South,6.9,-,N/A,,Clear,180,2013-09-07 09:35:00
4:55 AM,67.6,59.9,76,29.97,10.0,South,5.8,-,N/A,,Clear,180,2013-09-07 09:55:00
5:15 AM,67.5,59.9,77,29.97,10.0,South,5.8,-,N/A,,Clear,170,2013-09-07 10:15:00
5:35 AM,67.5,59.9,77,29.97,10.0,South,6.9,-,N/A,,Clear,180,2013-09-07 10:35:00
5:55 AM,68.0,59.5,74,29.97,10.0,South,5.8,-,N/A,,Clear,180,2013-09-07 10:55:00
6:15 AM,67.3,60.4,79,29.97,10.0,South,6.9,-,N/A,,Scattered Clouds,190,2013-09-07 11:15:00
6:35 AM,67.1,60.4,79,29.97,10.0,South,6.9,-,N/A,,Clear,180,2013-09-07 11:35:00
6:55 AM,67.3,60.3,78,29.97,10.0,South,6.9,-,N/A,,Clear,190,2013-09-07 11:55:00
7:15 AM,67.3,60.8,80,29.96,10.0,South,5.8,-,N/A,,Clear,190,2013-09-07 12:15:00
7:35 AM,68.0,61.0,78,29.96,10.0,SSW,8.1,-,N/A,,Scattered Clouds,200,2013-09-07 12:35:00
7:55 AM,68.4,61.2,78,29.96,10.0,SSW,6.9,-,N/A,,Scattered Clouds,200,2013-09-07 12:55:00
8:15 AM,68.4,61.2,78,29.96,10.0,SSW,8.1,-,N/A,,Clear,200,2013-09-07 13:15:00
8:35 AM,69.1,61.2,76,29.96,10.0,SSW,10.4,-,N/A,,Scattered Clouds,200,2013-09-07 13:35:00
8:55 AM,70.0,61.0,73,29.95,10.0,SSW,10.4,-,N/A,,Overcast,200,2013-09-07 13:55:00
9:15 AM,71.4,61.0,70,29.95,10.0,SSW,9.2,-,N/A,,Mostly Cloudy,210,2013-09-07 14:15:00
9:35 AM,73.2,60.8,65,29.95,10.0,SSW,9.2,-,N/A,,Scattered Clouds,210,2013-09-07 14:35:00
9:55 AM,75.2,60.6,60,29.94,10.0,SW,10.4,-,N/A,,Scattered Clouds,220,2013-09-07 14:55:00
10:15 AM,75.9,59.9,57,29.94,10.0,SSW,8.1,-,N/A,,Scattered Clouds,210,2013-09-07 15:15:00
10:35 AM,74.8,59.9,60,29.94,10.0,SSW,9.2,-,N/A,Thunderstorm,Scattered Clouds,210,2013-09-07 15:35:00
10:55 AM,74.3,60.8,63,29.93,10.0,South,9.2,-,N/A,,Mostly Cloudy,190,2013-09-07 15:55:00
11:15 AM,73.9,62.1,66,29.93,10.0,SSW,3.5,-,N/A,,Overcast,200,2013-09-07 16:15:00
11:35 AM,72.7,63.7,73,29.95,1.5,NE,3.5,-,0.12,Rain-Thunderstorm,Heavy Thunderstorms and Rain,40,2013-09-07 16:35:00
11:55 AM,70.7,66.4,86,29.95,10.0,ENE,6.9,-,0.12,Thunderstorm,Thunderstorm,60,2013-09-07 16:55:00
12:15 PM,71.8,66.9,85,29.93,4.0,ESE,4.6,-,0.04,Rain-Thunderstorm,Light Thunderstorms and Rain,120,2013-09-07 17:15:00
12:35 PM,74.1,66.4,77,29.93,10.0,East,6.9,-,0.04,,Scattered Clouds,100,2013-09-07 17:35:00
12:55 PM,76.1,67.1,74,29.93,10.0,ESE,6.9,-,0.04,,Scattered Clouds,110,2013-09-07 17:55:00
1:15 PM,75.7,66.7,74,29.93,10.0,East,6.9,-,N/A,,Mostly Cloudy,90,2013-09-07 18:15:00
1:35 PM,75.7,66.7,74,29.92,10.0,ESE,5.8,-,N/A,Thunderstorm,Mostly Cloudy,120,2013-09-07 18:35:00
1:55 PM,77.9,65.8,66,29.92,10.0,SE,5.8,-,N/A,,Scattered Clouds,140,2013-09-07 18:55:00
2:15 PM,80.2,64.4,58,29.92,10.0,SSE,3.5,-,N/A,,Scattered Clouds,150,2013-09-07 19:15:00
2:35 PM,80.8,64.4,57,29.92,10.0,South,3.5,-,N/A,,Clear,170,2013-09-07 19:35:00
2:55 PM,81.7,65.8,58,29.91,10.0,SSW,3.5,-,N/A,,Clear,200,2013-09-07 19:55:00
3:15 PM,82.2,65.8,57,29.91,10.0,South,4.6,-,N/A,,Clear,190,2013-09-07 20:15:00
3:35 PM,82.6,65.5,56,29.91,10.0,Calm,Calm,-,N/A,,Clear,0,2013-09-07 20:35:00
3:55 PM,83.3,64.4,53,29.91,10.0,Calm,Calm,-,N/A,,Clear,0,2013-09-07 20:55:00
4:15 PM,84.2,63.5,50,29.91,10.0,SW,4.6,-,N/A,,Clear,230,2013-09-07 21:15:00
4:35 PM,84.7,63.5,49,29.91,10.0,SW,4.6,-,N/A,,Clear,230,2013-09-07 21:35:00
4:55 PM,84.6,62.8,48,29.91,10.0,Calm,Calm,-,N/A,,Clear,0,2013-09-07 21:55:00
5:15 PM,84.2,61.7,47,29.91,10.0,Calm,Calm,-,N/A,,Clear,0,2013-09-07 22:15:00
5:35 PM,84.2,63.1,49,29.91,10.0,Calm,Calm,-,N/A,,Clear,0,2013-09-07 22:35:00
5:55 PM,83.3,66.7,57,29.91,10.0,ESE,4.6,-,N/A,,Clear,110,2013-09-07 22:55:00
6:15 PM,82.9,68.2,61,29.92,10.0,East,3.5,-,N/A,,Clear,90,2013-09-07 23:15:00
6:35 PM,82.2,67.5,61,29.92,10.0,East,4.6,-,N/A,,Clear,100,2013-09-07 23:35:00
6:55 PM,80.8,68.5,66,29.92,10.0,East,3.5,-,N/A,,Clear,90,2013-09-07 23:55:00
7:15 PM,79.7,69.3,70,29.94,10.0,East,4.6,-,N/A,,Clear,80,2013-09-08 00:15:00
7:35 PM,77.2,70.7,80,29.93,7.0,SE,3.5,-,N/A,,Clear,140,2013-09-08 00:35:00
7:55 PM,76.1,70.9,84,29.94,10.0,Calm,Calm,-,N/A,,Clear,0,2013-09-08 00:55:00
8:15 PM,74.1,70.0,87,29.95,10.0,North,4.6,-,N/A,,Clear,350,2013-09-08 01:15:00
8:35 PM,74.1,71.6,92,29.97,7.0,North,5.8,-,N/A,,Clear,360,2013-09-08 01:35:00
8:55 PM,74.8,69.8,84,29.97,10.0,NE,4.6,-,N/A,,Clear,40,2013-09-08 01:55:00
9:15 PM,74.3,69.6,85,29.97,10.0,North,6.9,-,N/A,,Clear,10,2013-09-08 02:15:00
9:35 PM,72.9,68.5,86,29.98,10.0,North,9.2,-,N/A,,Clear,360,2013-09-08 02:35:00
9:55 PM,72.5,67.1,83,29.99,10.0,North,8.1,-,N/A,,Scattered Clouds,10,2013-09-08 02:55:00
10:15 PM,71.6,66.6,84,30.00,10.0,NNE,8.1,-,N/A,,Scattered Clouds,20,2013-09-08 03:15:00
10:35 PM,70.9,67.1,88,30.00,10.0,NNE,8.1,-,N/A,,Scattered Clouds,30,2013-09-08 03:35:00
10:55 PM,71.2,68.0,89,30.01,10.0,NE,8.1,-,N/A,,Mostly Cloudy,40,2013-09-08 03:55:00
11:15 PM,70.7,65.7,84,30.02,10.0,NE,11.5,-,N/A,,Scattered Clouds,50,2013-09-08 04:15:00
11:35 PM,70.0,65.3,85,30.02,10.0,ENE,12.7,17.3,N/A,,Mostly Cloudy,60,2013-09-08 04:35:00
11:55 PM,68.9,64.4,86,30.03,10.0,NE,9.2,-,N/A,,Mostly Cloudy,50,2013-09-08 04:55:00